TimeCST,TemperatureF,Dew PointF,Humidity,Sea Level PressureIn,VisibilityMPH,Wind Direction,Wind SpeedMPH,Gust SpeedMPH,PrecipitationIn,Events,Conditions,WindDirDegrees,DateUTC
12:00 AM,32.0,32.0,100,29.87,10.0,Calm,Calm,-,N/A,,Clear,0,2012-12-02 06:00:00
12:20 AM,30.2,30.2,100,29.88,10.0,Calm,Calm,-,N/A,,Clear,0,2012-12-02 06:20:00
12:40 AM,28.4,28.4,100,29.87,10.0,Calm,Calm,-,N/A,,Clear,0,2012-12-02 06:40:00
1:00 AM,28.4,28.4,100,29.88,10.0,Calm,Calm,-,N/A,,Clear,0,2012-12-02 07:00:00
1:20 AM,30.2,30.2,100,29.88,10.0,Calm,Calm,-,N/A,,Clear,0,2012-12-02 07:20:00
1:40 AM,28.4,28.4,100,29.88,10.0,Calm,Calm,-,N/A,,Clear,0,2012-12-02 07:40:00
2:00 AM,28.4,28.4,100,29.89,10.0,Calm,Calm,-,N/A,,Clear,0,2012-12-02 08:00:00
2:20 AM,26.6,26.6,100,29.90,10.0,Calm,Calm,-,N/A,,Clear,0,2012-12-02 08:20:00
2:40 AM,28.4,28.4,100,29.90,10.0,Calm,Calm,-,N/A,,Clear,0,2012-12-02 08:40:00
3:00 AM,28.4,28.4,100,29.90,10.0,East,4.6,-,N/A,,Clear,90,2012-12-02 09:00:00
3:20 AM,24.8,24.8,100,29.90,10.0,Calm,Calm,-,N/A,,Clear,0,2012-12-02 09:20:00
3:40 AM,26.6,26.6,100,29.91,10.0,Calm,Calm,-,N/A,,Clear,0,2012-12-02 09:40:00
4:00 AM,28.4,28.4,100,29.89,10.0,SE,4.6,-,N/A,,Clear,130,2012-12-02 10:00:00
4:20 AM,24.8,24.8,100,29.89,10.0,SE,4.6,-,N/A,,Clear,130,2012-12-02 10:20:00
4:40 AM,24.8,24.8,100,29.90,10.0,SE,5.8,-,N/A,,Clear,130,2012-12-02 10:40:00
5:00 AM,26.6,26.6,100,29.90,10.0,SSE,5.8,-,N/A,,Clear,160,2012-12-02 11:00:00
5:20 AM,28.4,28.4,100,29.90,10.0,South,4.6,-,N/A,,Clear,170,2012-12-02 11:20:00
5:40 AM,26.6,26.6,100,29.90,10.0,SSE,4.6,-,N/A,,Clear,160,2012-12-02 11:40:00
6:00 AM,26.6,26.6,100,29.90,10.0,South,5.8,-,N/A,,Clear,170,2012-12-02 12:00:00
6:20 AM,26.6,26.6,100,29.91,10.0,South,8.1,-,N/A,,Clear,170,2012-12-02 12:20:00
6:40 AM,28.4,28.4,100,29.91,10.0,South,9.2,-,N/A,,Clear,170,2012-12-02 12:40:00
7:00 AM,26.6,26.6,100,29.92,10.0,South,10.4,-,N/A,,Clear,180,2012-12-02 13:00:00
7:20 AM,26.6,26.6,100,29.92,10.0,South,10.4,-,N/A,,Clear,190,2012-12-02 13:20:00
7:40 AM,26.6,26.6,100,29.92,10.0,South,10.4,-,N/A,,Clear,180,2012-12-02 13:40:00
8:00 AM,28.4,28.4,100,29.91,10.0,South,10.4,-,N/A,,Clear,190,2012-12-02 14:00:00
8:20 AM,32.0,32.0,100,29.92,10.0,South,12.7,-,N/A,,Clear,190,2012-12-02 14:20:00
8:40 AM,32.0,32.0,100,29.92,10.0,South,13.8,-,N/A,,Clear,180,2012-12-02 14:40:00
9:00 AM,32.0,32.0,100,29.91,10.0,South,11.5,-,N/A,,Clear,180,2012-12-02 15:00:00
9:20 AM,35.6,35.6,100,29.90,10.0,South,11.5,-,N/A,,Clear,170,2012-12-02 15:20:00
9:40 AM,37.4,37.4,100,29.90,10.0,South,15.0,-,N/A,,Clear,170,2012-12-02 15:40:00
10:00 AM,39.2,37.4,93,29.90,10.0,South,15.0,-,N/A,,Clear,170,2012-12-02 16:00:00
10:20 AM,39.2,37.4,93,29.90,10.0,South,16.1,-,N/A,,Clear,170,2012-12-02 16:20:00
10:40 AM,41.0,35.6,81,29.89,10.0,South,13.8,19.6,N/A,,Clear,170,2012-12-02 16:40:00
11:00 AM,42.8,37.4,81,29.89,10.0,South,15.0,19.6,N/A,,Clear,170,2012-12-02 17:00:00
11:20 AM,46.4,37.4,71,29.87,10.0,South,17.3,-,N/A,,Clear,180,2012-12-02 17:20:00
11:40 AM,46.4,37.4,71,29.86,10.0,South,13.8,-,N/A,,Clear,170,2012-12-02 17:40:00
12:00 PM,50.0,37.4,62,29.85,10.0,South,17.3,21.9,N/A,,Clear,180,2012-12-02 18:00:00
12:20 PM,51.8,37.4,58,29.84,10.0,South,17.3,-,N/A,,Clear,180,2012-12-02 18:20:00
12:40 PM,55.4,37.4,51,29.82,10.0,South,18.4,25.3,N/A,,Clear,170,2012-12-02 18:40:00
1:00 PM,55.4,37.4,51,29.79,10.0,South,18.4,-,N/A,,Clear,180,2012-12-02 19:00:00
1:20 PM,57.2,35.6,44,29.79,10.0,South,20.7,27.6,N/A,,Clear,170,2012-12-02 19:20:00
1:40 PM,59.0,35.6,42,29.78,10.0,South,17.3,26.5,N/A,,Clear,170,2012-12-02 19:40:00
2:00 PM,59.0,35.6,42,29.78,10.0,South,17.3,25.3,N/A,,Clear,180,2012-12-02 20:00:00
2:20 PM,57.2,35.6,44,29.78,10.0,South,18.4,23.0,N/A,,Clear,180,2012-12-02 20:20:00
2:40 PM,57.2,35.6,44,29.78,10.0,South,17.3,24.2,N/A,,Clear,180,2012-12-02 20:40:00
3:00 PM,57.2,35.6,44,29.76,10.0,South,12.7,-,N/A,,Clear,170,2012-12-02 21:00:00
3:20 PM,55.4,35.6,47,29.75,10.0,South,15.0,-,N/A,,Clear,170,2012-12-02 21:20:00
3:40 PM,55.4,35.6,47,29.75,10.0,SSE,15.0,-,N/A,,Clear,160,2012-12-02 21:40:00
4:00 PM,53.6,35.6,51,29.73,10.0,South,17.3,23.0,N/A,,Clear,170,2012-12-02 22:00:00
4:20 PM,53.6,35.6,51,29.73,10.0,SSE,15.0,21.9,N/A,,Clear,160,2012-12-02 22:20:00
4:40 PM,50.0,35.6,58,29.73,10.0,SSE,12.7,18.4,N/A,,Clear,160,2012-12-02 22:40:00
5:00 PM,50.0,37.4,62,29.71,10.0,SSE,15.0,-,N/A,,Clear,160,2012-12-02 23:00:00
5:20 PM,50.0,37.4,62,29.71,10.0,South,17.3,-,N/A,,Clear,170,2012-12-02 23:20:00
5:40 PM,48.2,37.4,66,29.71,10.0,South,16.1,24.2,N/A,,Clear,170,2012-12-02 23:40:00
6:00 PM,48.2,37.4,66,29.70,10.0,SSE,16.1,20.7,N/A,,Clear,160,2012-12-03 00:00:00
6:20 PM,48.2,39.2,71,29.70,10.0,SSE,16.1,-,N/A,,Clear,160,2012-12-03 00:20:00
6:40 PM,46.4,39.2,76,29.72,10.0,SSE,12.7,-,N/A,,Clear,160,2012-12-03 00:40:00
7:00 PM,46.4,39.2,76,29.71,10.0,SSE,13.8,-,N/A,,Clear,160,2012-12-03 01:00:00
7:20 PM,46.4,39.2,76,29.70,10.0,SSE,15.0,20.7,N/A,,Clear,160,2012-12-03 01:20:00
7:40 PM,46.4,41.0,81,29.70,10.0,South,19.6,23.0,N/A,,Clear,170,2012-12-03 01:40:00
8:00 PM,46.4,41.0,81,29.68,10.0,SSE,18.4,24.2,N/A,,Clear,160,2012-12-03 02:00:00
8:20 PM,46.4,41.0,81,29.67,10.0,South,18.4,26.5,N/A,,Clear,170,2012-12-03 02:20:00
8:40 PM,48.2,41.0,76,29.67,10.0,SSE,19.6,25.3,N/A,,Clear,160,2012-12-03 02:40:00
9:00 PM,48.2,41.0,76,29.65,10.0,South,20.7,28.8,N/A,,Clear,170,2012-12-03 03:00:00
9:20 PM,48.2,42.8,82,29.65,10.0,South,20.7,26.5,N/A,,Clear,170,2012-12-03 03:20:00
9:40 PM,48.2,42.8,82,29.64,10.0,SSE,19.6,26.5,N/A,,Clear,160,2012-12-03 03:40:00
10:00 PM,48.2,42.8,82,29.63,10.0,South,21.9,29.9,N/A,,Clear,170,2012-12-03 04:00:00
10:20 PM,48.2,42.8,82,29.62,10.0,South,23.0,31.1,N/A,,Clear,170,2012-12-03 04:20:00
10:40 PM,48.2,42.8,82,29.63,10.0,South,19.6,27.6,N/A,,Clear,180,2012-12-03 04:40:00
11:00 PM,48.2,41.0,76,29.62,10.0,South,17.3,25.3,N/A,,Clear,170,2012-12-03 05:00:00
11:20 PM,46.4,41.0,81,29.62,10.0,SSE,17.3,-,N/A,,Clear,160,2012-12-03 05:20:00
11:40 PM,46.4,42.8,87,29.62,10.0,South,19.6,24.2,N/A,,Clear,170,2012-12-03 05:40:00